This is the latest recevied weather packets stored in our database for station/object KA3WVU. If no packets are shown the sender has not sent any weather packets the latest 10 day(s).
| Time | Temp. | Humidity | Pressure | Rain* | Wind** | Luminosity | Snow |
|---|---|---|---|---|---|---|---|
| 1777260810 | 5.56° C | 90% | 1021.6 hPa | 0 mm | - | 0 W/m² | - |
| 1777260506 | 6.11° C | 90% | 1021.5 hPa | 0 mm | - | 0 W/m² | - |
| 1777260200 | 6.11° C | 90% | 1021.5 hPa | 0 mm | - | 0 W/m² | - |
| 1777259897 | 6.11° C | 90% | 1021.3 hPa | 0 mm | - | 0 W/m² | - |
| 1777259594 | 6.11° C | 90% | 1021.3 hPa | 0 mm | - | 0 W/m² | - |
| 1777259292 | 5.56° C | 91% | 1021.3 hPa | 0 mm | - | 0 W/m² | - |
| 1777258989 | 5.56° C | 91% | 1021.5 hPa | 0 mm | - | 0 W/m² | - |
| 1777258686 | 6.11° C | 90% | 1021.3 hPa | 0 mm | - | 0 W/m² | - |
| 1777258382 | 6.11° C | 90% | 1021.5 hPa | 0 mm | - | 0 W/m² | - |
| 1777258079 | 6.11° C | 90% | 1021.7 hPa | 0 mm | - | 0 W/m² | - |
| 1777257776 | 6.11° C | 90% | 1021.6 hPa | 0 mm | - | 0 W/m² | - |
| 1777257474 | 6.11° C | 90% | 1021.7 hPa | 0 mm | - | 0 W/m² | - |
| 1777257171 | 6.11° C | 89% | 1021.6 hPa | 0 mm | - | 0 W/m² | - |
| 1777256867 | 6.67° C | 89% | 1021.7 hPa | 0 mm | - | 0 W/m² | - |
| 1777256565 | 6.67° C | 88% | 1021.6 hPa | 0 mm | - | 0 W/m² | - |
| 1777256264 | 6.67° C | 88% | 1021.6 hPa | 0 mm | - | 0 W/m² | - |
| 1777255961 | 6.67° C | 88% | 1021.5 hPa | 0 mm | - | 0 W/m² | - |
| 1777255657 | 6.67° C | 87% | 1021.6 hPa | 0 mm | - | 0 W/m² | - |
| 1777255354 | 6.67° C | 87% | 1021.6 hPa | 0 mm | - | 0 W/m² | - |
| 1777255050 | 6.67° C | 86% | 1021.6 hPa | 0 mm | - | 0 W/m² | - |
| 1777254746 | 7.22° C | 86% | 1021.3 hPa | 0 mm | - | 0 W/m² | - |
| 1777254444 | 7.22° C | 85% | 1021.7 hPa | 0 mm | - | 0 W/m² | - |
| 1777254140 | 7.22° C | 84% | 1021.6 hPa | 0 mm | - | 0 W/m² | - |
| 1777253836 | 7.22° C | 83% | 1021.6 hPa | 0 mm | - | 0 W/m² | - |
| 1777253533 | 7.78° C | 82% | 1021.5 hPa | 0 mm | - | 0 W/m² | - |
* Rain latest hour (hover to see other rain measurements)
** Current wind speed in m/s (hover to see current wind gust speed)